• In Kazakhstan
  • List of Countries
  • For 7 days
  • Water Temperature
  • Satellite Maps
  • Weather Map
  • News
  • Weather Widgets
  • user-avatar
    Login

    Hourly Weather Ceccano

    Today, 20 April, Saturday

    Time Temperature Precipitation Wind Pressure Humidity
    00:00 +12°C° 0 mm 2 mps 750 mmHg 72%
    01:00 +12°C° 0 mm 2 mps 750 mmHg 74%
    02:00 +12°C° 0 mm 2 mps 750 mmHg 72%
    03:00 +10°C° 0 mm 2 mps 750 mmHg 70%
    04:00 +10°C° 0 mm 2 mps 749 mmHg 69%
    05:00 +12°C° 0 mm 2 mps 749 mmHg 66%
    06:00 +13°C° 0 mm 2 mps 750 mmHg 63%
    07:00 +14°C° 0 mm 2 mps 750 mmHg 60%
    08:00 +16°C° 0 mm 1 mps 750 mmHg 52%
    09:00 +20°C° 0 mm 1 mps 750 mmHg 44%
    10:00 +20°C° 0 mm 0 mps 750 mmHg 37%
    11:00 +23°C° 0 mm 1 mps 750 mmHg 36%
    12:00 +23°C° 0 mm 1 mps 749 mmHg 36%
    13:00 +24°C° 0 mm 2 mps 749 mmHg 36%
    14:00 +23°C° 0 mm 2 mps 749 mmHg 39%
    15:00 +23°C° 0 mm 2 mps 749 mmHg 41%
    16:00 +23°C° 0 mm 2 mps 748 mmHg 44%
    17:00 +21°C° 0 mm 1 mps 748 mmHg 51%
    18:00 +19°C° 0 mm 1 mps 748 mmHg 58%
    19:00 +15°C° 0 mm 0 mps 747 mmHg 64%
    20:00 +15°C° 0 mm 1 mps 747 mmHg 65%
    21:00 +15°C° 0 mm 1 mps 748 mmHg 66%
    22:00 +15°C° 0 mm 1 mps 748 mmHg 68%
    23:00 +15°C° 0 mm 1 mps 748 mmHg 65%

    Tomorrow, 21 April, Sunday

    Time Temperature Precipitation Wind Pressure Humidity
    00:00 +15°C° 0 mm 1 mps 748 mmHg 63%
    01:00 +14°C° 0 mm 1 mps 748 mmHg 61%
    02:00 +14°C° 0 mm 2 mps 747 mmHg 59%
    03:00 +14°C° 0 mm 2 mps 747 mmHg 56%
    04:00 +14°C° 0 mm 2 mps 747 mmHg 53%
    05:00 +15°C° 0 mm 2 mps 747 mmHg 56%
    06:00 +15°C° 0 mm 2 mps 746 mmHg 58%
    07:00 +15°C° 0 mm 2 mps 746 mmHg 61%
    08:00 +17°C° 0 mm 2 mps 746 mmHg 53%
    09:00 +19°C° 0 mm 2 mps 746 mmHg 45%
    10:00 +21°C° 0 mm 2 mps 746 mmHg 38%
    11:00 +23°C° 0 mm 2 mps 746 mmHg 37%
    12:00 +24°C° 0 mm 3 mps 745 mmHg 36%
    13:00 +24°C° 0 mm 3 mps 745 mmHg 35%
    14:00 +22°C° 0 mm 3 mps 744 mmHg 42%
    15:00 +21°C° 0 mm 3 mps 744 mmHg 48%
    16:00 +21°C° 0 mm 2 mps 743 mmHg 54%
    17:00 +19°C° 0 mm 2 mps 743 mmHg 59%
    18:00 +18°C° 0 mm 2 mps 743 mmHg 64%
    19:00 +17°C° 0 mm 2 mps 742 mmHg 69%
    20:00 +16°C° 0 mm 2 mps 742 mmHg 71%
    21:00 +16°C° 0 mm 2 mps 742 mmHg 73%
    22:00 +15°C° 0 mm 2 mps 742 mmHg 75%
    23:00 +15°C° 0 mm 2 mps 742 mmHg 75%

    Day after tomorrow, 22 April, Monday

    Time Temperature Precipitation Wind Pressure Humidity
    00:00 +15°C° 0 mm 2 mps 742 mmHg 75%
    01:00 +14°C° 0 mm 2 mps 741 mmHg 76%
    02:00 +14°C° 0 mm 2 mps 741 mmHg 74%
    03:00 +13°C° 0 mm 3 mps 740 mmHg 71%
    04:00 +13°C° 0 mm 3 mps 739 mmHg 69%
    05:00 +13°C° 0 mm 3 mps 739 mmHg 65%
    06:00 +14°C° 0 mm 3 mps 739 mmHg 62%
    07:00 +16°C° 0 mm 3 mps 738 mmHg 58%
    08:00 +17°C° 0 mm 4 mps 738 mmHg 52%
    09:00 +19°C° 0 mm 5 mps 738 mmHg 46%
    10:00 +21°C° 0 mm 5 mps 737 mmHg 41%
    11:00 +19°C° 1.4 mm 5 mps 737 mmHg 55%
    12:00 +17°C° 1.4 mm 4 mps 737 mmHg 69%
    13:00 +14°C° 1.4 mm 3 mps 736 mmHg 84%
    14:00 +14°C° 1 mm 3 mps 735 mmHg 84%
    15:00 +16°C° 1 mm 2 mps 735 mmHg 85%
    16:00 +16°C° 1 mm 2 mps 734 mmHg 85%
    17:00 +15°C° 0.1 mm 2 mps 734 mmHg 86%
    18:00 +15°C° 0.1 mm 2 mps 733 mmHg 87%
    19:00 +15°C° 0.1 mm 2 mps 733 mmHg 88%
    20:00 +13°C° 0.1 mm 3 mps 733 mmHg 88%
    21:00 +13°C° 0.1 mm 3 mps 733 mmHg 89%
    22:00 +13°C° 0.1 mm 3 mps 733 mmHg 90%
    23:00 +13°C° 0.1 mm 3 mps 733 mmHg 90%

    23 April, Tuesday

    Time Temperature Precipitation Wind Pressure Humidity
    00:00 +13°C° 0.1 mm 3 mps 733 mmHg 90%
    01:00 +13°C° 0.1 mm 3 mps 733 mmHg 91%
    02:00 +13°C° 0.8 mm 3 mps 733 mmHg 93%
    03:00 +13°C° 0.8 mm 3 mps 733 mmHg 95%
    04:00 +14°C° 0.8 mm 3 mps 733 mmHg 96%
    05:00 +14°C° 0.8 mm 3 mps 733 mmHg 96%
    06:00 +14°C° 0.8 mm 3 mps 734 mmHg 96%
    07:00 +15°C° 0.8 mm 2 mps 734 mmHg 96%
    08:00 +16°C° 0.6 mm 3 mps 734 mmHg 94%
    09:00 +16°C° 0.6 mm 3 mps 735 mmHg 92%
    10:00 +17°C° 0.6 mm 3 mps 735 mmHg 90%
    11:00 +17°C° 0.5 mm 3 mps 735 mmHg 88%
    12:00 +17°C° 0.5 mm 3 mps 736 mmHg 87%
    13:00 +17°C° 0.5 mm 3 mps 736 mmHg 86%
    14:00 +18°C° 0.2 mm 3 mps 736 mmHg 84%
    15:00 +18°C° 0.2 mm 3 mps 736 mmHg 82%
    16:00 +18°C° 0.2 mm 2 mps 736 mmHg 80%
    17:00 +17°C° 0.1 mm 2 mps 736 mmHg 85%
    18:00 +16°C° 0.1 mm 2 mps 737 mmHg 89%
    19:00 +15°C° 0.1 mm 2 mps 737 mmHg 94%
    20:00 +14°C° 0 mm 2 mps 738 mmHg 94%
    21:00 +14°C° 0 mm 1 mps 738 mmHg 94%
    22:00 +13°C° 0 mm 1 mps 739 mmHg 94%
    23:00 +13°C° 0 mm 1 mps 739 mmHg 93%

    24 April, Wednesday

    Time Temperature Precipitation Wind Pressure Humidity
    00:00 +13°C° 0 mm 1 mps 739 mmHg 92%
    01:00 +13°C° 0 mm 1 mps 740 mmHg 91%
    02:00 +13°C° 0 mm 2 mps 740 mmHg 89%
    03:00 +13°C° 0 mm 2 mps 740 mmHg 87%
    04:00 +13°C° 0 mm 2 mps 740 mmHg 86%
    05:00 +14°C° 0 mm 2 mps 740 mmHg 82%
    06:00 +15°C° 0 mm 2 mps 740 mmHg 79%
    07:00 +17°C° 0 mm 2 mps 740 mmHg 75%
    08:00 +19°C° 0 mm 2 mps 741 mmHg 66%
    09:00 +23°C° 0 mm 1 mps 741 mmHg 56%
    10:00 +25°C° 0 mm 1 mps 741 mmHg 46%
    11:00 +26°C° 0 mm 1 mps 741 mmHg 44%
    12:00 +27°C° 0 mm 1 mps 741 mmHg 42%
    13:00 +28°C° 0 mm 1 mps 741 mmHg 40%
    14:00 +28°C° 0 mm 1 mps 741 mmHg 42%
    15:00 +27°C° 0 mm 1 mps 741 mmHg 43%
    16:00 +27°C° 0 mm 1 mps 740 mmHg 45%
    17:00 +25°C° 0 mm 1 mps 740 mmHg 51%
    18:00 +22°C° 0 mm 1 mps 740 mmHg 58%
    19:00 +20°C° 0 mm 1 mps 740 mmHg 65%
    20:00 +20°C° 0 mm 1 mps 741 mmHg 65%
    21:00 +19°C° 0 mm 1 mps 741 mmHg 65%
    22:00 +18°C° 0 mm 2 mps 742 mmHg 65%
    23:00 +17°C° 0 mm 2 mps 742 mmHg 65%

    25 April, Thursday

    Time Temperature Precipitation Wind Pressure Humidity
    00:00 +17°C° 0 mm 2 mps 741 mmHg 64%
    01:00 +17°C° 0 mm 2 mps 741 mmHg 64%
    02:00 +17°C° 0 mm 2 mps 741 mmHg 63%
    03:00 +17°C° 0 mm 2 mps 741 mmHg 62%
    04:00 +16°C° 0 mm 2 mps 741 mmHg 61%
    05:00 +18°C° 0 mm 1 mps 741 mmHg 62%
    06:00 +19°C° 0 mm 1 mps 742 mmHg 62%
    07:00 +20°C° 0 mm 1 mps 742 mmHg 63%
    08:00 +23°C° 0 mm 1 mps 742 mmHg 56%
    09:00 +25°C° 0 mm 1 mps 742 mmHg 49%
    10:00 +27°C° 0 mm 1 mps 742 mmHg 41%
    11:00 +28°C° 0 mm 1 mps 742 mmHg 41%
    12:00 +28°C° 0 mm 1 mps 741 mmHg 40%
    13:00 +29°C° 0 mm 2 mps 741 mmHg 40%
    14:00 +28°C° 0 mm 2 mps 741 mmHg 42%
    15:00 +28°C° 0 mm 2 mps 740 mmHg 45%
    16:00 +27°C° 0 mm 2 mps 740 mmHg 48%
    17:00 +25°C° 0 mm 1 mps 740 mmHg 56%
    18:00 +23°C° 0 mm 1 mps 740 mmHg 65%
    19:00 +21°C° 0 mm 1 mps 740 mmHg 73%
    20:00 +20°C° 0 mm 1 mps 740 mmHg 75%
    21:00 +19°C° 0 mm 1 mps 740 mmHg 76%
    22:00 +19°C° 0 mm 1 mps 741 mmHg 78%
    23:00 +18°C° 0 mm 1 mps 740 mmHg 78%
    Show more